Time,TemperatureF,DewpointF,PressureIn,WindDirection,WindDirectionDegrees,WindSpeedMPH,WindSpeedGustMPH,Humidity,HourlyPrecipIn,Conditions,Clouds,dailyrainin,SoftwareType,DateUTC
2013-06-29 00:01:00,50.0,36.0,30.02,NNE,15,0.0,-999.0,58,-99.99,,,-99.99,,2013-06-29 06:01:00,
2013-06-29 00:12:00,49.0,35.0,30.03,NNE,15,0.0,-999.0,58,-99.99,,,-99.99,,2013-06-29 06:12:00,
2013-06-29 00:22:00,49.0,35.0,30.03,NNE,15,0.0,-999.0,58,-99.99,,,-99.99,,2013-06-29 06:22:00,
2013-06-29 00:33:00,49.0,36.0,30.03,NNE,15,0.0,-999.0,60,-99.99,,,-99.99,,2013-06-29 06:33:00,
2013-06-29 00:43:00,49.0,36.0,30.04,NNE,15,0.0,-999.0,60,-99.99,,,-99.99,,2013-06-29 06:43:00,
2013-06-29 00:53:00,49.0,36.0,30.04,NNE,15,0.0,-999.0,60,-99.99,,,-99.99,,2013-06-29 06:53:00,
2013-06-29 01:02:00,49.0,37.0,30.03,NNE,15,0.0,-999.0,62,-99.99,,,-99.99,,2013-06-29 07:02:00,
2013-06-29 01:12:00,48.0,36.0,30.04,NNE,15,0.0,-999.0,64,-99.99,,,-99.99,,2013-06-29 07:12:00,
2013-06-29 01:22:00,48.0,36.0,30.04,NNE,15,0.0,-999.0,64,-99.99,,,-99.99,,2013-06-29 07:22:00,
2013-06-29 01:33:00,47.0,35.0,30.03,NNE,15,0.0,-999.0,64,-99.99,,,-99.99,,2013-06-29 07:33:00,
2013-06-29 01:43:00,46.0,35.0,30.03,NNE,15,0.0,-999.0,65,-99.99,,,-99.99,,2013-06-29 07:43:00,
2013-06-29 01:53:00,46.0,35.0,30.03,NNE,15,0.0,-999.0,65,-99.99,,,-99.99,,2013-06-29 07:53:00,
2013-06-29 02:01:00,45.0,34.0,30.03,NNE,15,0.0,-999.0,66,-99.99,,,-99.99,,2013-06-29 08:01:00,
2013-06-29 02:11:00,45.0,35.0,30.02,NNE,15,0.0,-999.0,69,-99.99,,,-99.99,,2013-06-29 08:11:00,
2013-06-29 02:22:00,45.0,35.0,30.02,NNE,15,0.0,-999.0,69,-99.99,,,-99.99,,2013-06-29 08:22:00,
2013-06-29 02:33:00,44.0,34.0,30.03,NNE,15,0.0,-999.0,69,-99.99,,,-99.99,,2013-06-29 08:33:00,
2013-06-29 02:43:00,44.0,35.0,30.02,NNE,15,0.0,-999.0,71,-99.99,,,-99.99,,2013-06-29 08:43:00,
2013-06-29 02:52:00,44.0,35.0,30.02,NNE,15,0.0,-999.0,71,-99.99,,,-99.99,,2013-06-29 08:52:00,
2013-06-29 03:02:00,43.0,35.0,30.02,NNE,15,0.0,-999.0,72,-99.99,,,-99.99,,2013-06-29 09:02:00,
2013-06-29 03:12:00,43.0,35.0,30.01,NNE,15,0.0,-999.0,72,-99.99,,,-99.99,,2013-06-29 09:12:00,
2013-06-29 03:22:00,43.0,35.0,30.01,NNE,15,0.0,-999.0,72,-99.99,,,-99.99,,2013-06-29 09:22:00,
2013-06-29 03:33:00,42.0,34.0,30.02,NNE,15,0.0,-999.0,73,-99.99,,,-99.99,,2013-06-29 09:33:00,
2013-06-29 03:42:00,41.0,33.0,30.01,NNE,15,0.0,-999.0,74,-99.99,,,-99.99,,2013-06-29 09:42:00,
2013-06-29 03:53:00,41.0,33.0,30.01,NNE,15,0.0,-999.0,74,-99.99,,,-99.99,,2013-06-29 09:53:00,
2013-06-29 04:01:00,40.0,32.0,30.01,NNE,15,0.0,-999.0,74,-99.99,,,-99.99,,2013-06-29 10:01:00,
2013-06-29 04:11:00,40.0,33.0,30.01,NNE,15,0.0,-999.0,76,-99.99,,,-99.99,,2013-06-29 10:11:00,
2013-06-29 04:22:00,40.0,33.0,30.01,NNE,15,0.0,-999.0,76,-99.99,,,-99.99,,2013-06-29 10:22:00,
2013-06-29 04:33:00,40.0,33.0,30.00,NNE,15,0.0,-999.0,77,-99.99,,,-99.99,,2013-06-29 10:33:00,
2013-06-29 04:43:00,40.0,33.0,30.00,NNE,15,0.0,-999.0,77,-99.99,,,-99.99,,2013-06-29 10:43:00,
2013-06-29 04:52:00,40.0,33.0,30.00,NNE,15,0.0,-999.0,77,-99.99,,,-99.99,,2013-06-29 10:52:00,
2013-06-29 05:01:00,40.0,34.0,29.99,NNE,15,0.0,-999.0,78,-99.99,,,-99.99,,2013-06-29 11:01:00,
2013-06-29 05:11:00,40.0,34.0,29.99,NNE,15,0.0,-999.0,78,-99.99,,,-99.99,,2013-06-29 11:11:00,
2013-06-29 05:23:00,40.0,34.0,29.99,NNE,15,0.0,-999.0,78,-99.99,,,-99.99,,2013-06-29 11:23:00,
2013-06-29 05:33:00,40.0,34.0,29.99,NNE,15,0.0,-999.0,79,-99.99,,,-99.99,,2013-06-29 11:33:00,
2013-06-29 05:43:00,40.0,34.0,29.99,NNE,15,0.0,-999.0,79,-99.99,,,-99.99,,2013-06-29 11:43:00,
2013-06-29 05:53:00,40.0,34.0,29.99,NNE,15,0.0,-999.0,79,-99.99,,,-99.99,,2013-06-29 11:53:00,
2013-06-29 06:02:00,40.0,34.0,29.99,NNE,15,0.0,-999.0,79,-99.99,,,-99.99,,2013-06-29 12:02:00,
2013-06-29 06:12:00,41.0,35.0,29.99,NNE,15,0.0,-999.0,80,-99.99,,,-99.99,,2013-06-29 12:12:00,
2013-06-29 06:22:00,41.0,35.0,29.99,NNE,15,0.0,-999.0,80,-99.99,,,-99.99,,2013-06-29 12:22:00,
2013-06-29 06:34:00,42.0,36.0,29.98,NNE,15,0.0,-999.0,79,-99.99,,,-99.99,,2013-06-29 12:34:00,
2013-06-29 06:43:00,42.0,36.0,29.98,NNE,15,0.0,-999.0,80,-99.99,,,-99.99,,2013-06-29 12:43:00,
2013-06-29 06:53:00,42.0,36.0,29.98,NNE,15,0.0,-999.0,80,-99.99,,,-99.99,,2013-06-29 12:53:00,
2013-06-29 07:02:00,44.0,38.0,29.98,NNE,15,0.0,-999.0,78,-99.99,,,-99.99,,2013-06-29 13:02:00,
2013-06-29 07:11:00,45.0,39.0,29.98,NNE,15,0.0,-999.0,78,-99.99,,,-99.99,,2013-06-29 13:11:00,
2013-06-29 07:23:00,45.0,39.0,29.98,NNE,15,0.0,-999.0,78,-99.99,,,-99.99,,2013-06-29 13:23:00,
2013-06-29 07:34:00,46.0,40.0,29.98,NNE,15,0.0,-999.0,79,-99.99,,,-99.99,,2013-06-29 13:34:00,
2013-06-29 07:43:00,47.0,40.0,29.97,NNE,15,0.0,-999.0,77,-99.99,,,-99.99,,2013-06-29 13:43:00,
2013-06-29 07:53:00,47.0,40.0,29.97,NNE,15,0.0,-999.0,77,-99.99,,,-99.99,,2013-06-29 13:53:00,
2013-06-29 08:02:00,48.0,41.0,29.97,NNE,15,0.0,-999.0,76,-99.99,,,-99.99,,2013-06-29 14:02:00,
2013-06-29 08:12:00,50.0,41.0,29.95,NNE,15,0.0,-999.0,72,-99.99,,,-99.99,,2013-06-29 14:12:00,
2013-06-29 08:23:00,50.0,41.0,29.95,NNE,15,0.0,-999.0,72,-99.99,,,-99.99,,2013-06-29 14:23:00,
2013-06-29 08:34:00,53.0,41.0,29.95,NNE,15,0.0,-999.0,64,-99.99,,,-99.99,,2013-06-29 14:34:00,
2013-06-29 08:44:00,56.0,42.0,29.95,NNE,13,0.0,-999.0,59,-99.99,,,-99.99,,2013-06-29 14:44:00,
2013-06-29 08:53:00,56.0,42.0,29.95,NNE,13,0.0,-999.0,59,-99.99,,,-99.99,,2013-06-29 14:53:00,
2013-06-29 09:01:00,58.0,43.0,29.95,NNE,12,0.0,-999.0,57,-99.99,,,-99.99,,2013-06-29 15:01:00,
2013-06-29 09:11:00,59.0,39.0,29.95,East,82,1.0,-999.0,48,-99.99,,,-99.99,,2013-06-29 15:11:00,
2013-06-29 09:22:00,59.0,39.0,29.95,East,82,1.0,-999.0,48,-99.99,,,-99.99,,2013-06-29 15:22:00,
2013-06-29 09:33:00,62.0,37.0,29.95,NE,44,1.0,-999.0,40,-99.99,,,-99.99,,2013-06-29 15:33:00,
2013-06-29 09:42:00,62.0,37.0,29.94,NE,41,1.0,-999.0,40,-99.99,,,-99.99,,2013-06-29 15:42:00,
2013-06-29 09:53:00,62.0,37.0,29.94,NE,41,1.0,-999.0,40,-99.99,,,-99.99,,2013-06-29 15:53:00,
2013-06-29 10:01:00,65.0,37.0,29.93,SSW,202,1.0,-999.0,36,-99.99,,,-99.99,,2013-06-29 16:01:00,
2013-06-29 10:12:00,67.0,36.0,29.92,ENE,76,1.0,-999.0,32,-99.99,,,-99.99,,2013-06-29 16:12:00,
2013-06-29 10:22:00,67.0,36.0,29.92,ENE,76,1.0,-999.0,32,-99.99,,,-99.99,,2013-06-29 16:22:00,
2013-06-29 10:33:00,69.0,39.0,29.92,SE,126,2.0,-999.0,33,-99.99,,,-99.99,,2013-06-29 16:33:00,
2013-06-29 10:43:00,69.0,38.0,29.92,WSW,242,1.0,-999.0,32,-99.99,,,-99.99,,2013-06-29 16:43:00,
2013-06-29 10:53:00,69.0,38.0,29.92,WSW,242,1.0,-999.0,32,-99.99,,,-99.99,,2013-06-29 16:53:00,
2013-06-29 11:01:00,70.0,38.0,29.92,East,90,2.0,-999.0,31,-99.99,,,-99.99,,2013-06-29 17:01:00,
2013-06-29 11:12:00,72.0,38.0,29.91,SE,142,1.0,-999.0,29,-99.99,,,-99.99,,2013-06-29 17:12:00,
2013-06-29 11:22:00,72.0,38.0,29.91,SE,142,1.0,-999.0,29,-99.99,,,-99.99,,2013-06-29 17:22:00,
2013-06-29 11:33:00,72.0,38.0,29.91,East,86,2.0,-999.0,29,-99.99,,,-99.99,,2013-06-29 17:33:00,
2013-06-29 11:42:00,71.0,38.0,29.92,South,184,3.0,-999.0,30,-99.99,,,-99.99,,2013-06-29 17:42:00,
2013-06-29 11:52:00,71.0,38.0,29.92,South,184,3.0,-999.0,30,-99.99,,,-99.99,,2013-06-29 17:52:00,
2013-06-29 12:01:00,70.0,38.0,29.91,West,266,2.0,-999.0,31,-99.99,,,-99.99,,2013-06-29 18:01:00,
2013-06-29 12:12:00,71.0,43.0,29.91,NNW,327,3.0,-999.0,36,-99.99,,,-99.99,,2013-06-29 18:12:00,
2013-06-29 12:22:00,71.0,43.0,29.91,NNW,327,3.0,-999.0,36,-99.99,,,-99.99,,2013-06-29 18:22:00,
2013-06-29 12:43:00,66.0,40.0,29.91,ENE,72,2.0,-999.0,39,-99.99,,,-99.99,,2013-06-29 18:43:00,
2013-06-29 12:52:00,66.0,40.0,29.91,ENE,72,2.0,-999.0,39,-99.99,,,-99.99,,2013-06-29 18:52:00,
2013-06-29 13:01:00,67.0,41.0,29.91,WSW,237,1.0,-999.0,38,-99.99,,,-99.99,,2013-06-29 19:01:00,
2013-06-29 13:12:00,68.0,41.0,29.90,NNW,339,1.0,-999.0,37,-99.99,,,-99.99,,2013-06-29 19:12:00,
2013-06-29 13:22:00,68.0,41.0,29.90,NNW,339,1.0,-999.0,37,-99.99,,,-99.99,,2013-06-29 19:22:00,
2013-06-29 13:34:00,69.0,40.0,29.90,SW,236,1.0,-999.0,35,-99.99,,,-99.99,,2013-06-29 19:34:00,
2013-06-29 13:43:00,68.0,40.0,29.91,ENE,71,1.0,-999.0,36,-99.99,,,-99.99,,2013-06-29 19:43:00,
2013-06-29 13:54:00,68.0,40.0,29.91,ENE,71,1.0,-999.0,36,-99.99,,,-99.99,,2013-06-29 19:54:00,
2013-06-29 14:02:00,68.0,40.0,29.90,ENE,74,2.0,-999.0,36,-99.99,,,-99.99,,2013-06-29 20:02:00,
2013-06-29 14:11:00,67.0,40.0,29.91,NNW,336,0.0,-999.0,37,-99.99,,,-99.99,,2013-06-29 20:11:00,
2013-06-29 14:23:00,67.0,40.0,29.91,NNW,336,0.0,-999.0,37,-99.99,,,-99.99,,2013-06-29 20:23:00,
2013-06-29 14:33:00,65.0,36.0,29.92,South,177,0.0,-999.0,34,-99.99,,,-99.99,,2013-06-29 20:33:00,
2013-06-29 14:43:00,64.0,35.0,29.91,West,279,0.0,-999.0,34,-99.99,,,-99.99,,2013-06-29 20:43:00,
2013-06-29 14:52:00,64.0,35.0,29.91,West,279,0.0,-999.0,34,-99.99,,,-99.99,,2013-06-29 20:52:00,
2013-06-29 15:02:00,67.0,43.0,29.92,West,265,2.0,-999.0,42,-99.99,,,-99.99,,2013-06-29 21:02:00,
2013-06-29 15:11:00,66.0,42.0,29.94,WNW,290,2.0,-999.0,42,-99.99,,,-99.99,,2013-06-29 21:11:00,
2013-06-29 15:22:00,66.0,42.0,29.94,WNW,290,2.0,-999.0,42,-99.99,,,-99.99,,2013-06-29 21:22:00,
2013-06-29 15:32:00,64.0,41.0,29.95,WNW,295,1.0,-999.0,43,-99.99,,,-99.99,,2013-06-29 21:32:00,
2013-06-29 15:42:00,61.0,41.0,29.98,SSW,213,1.0,-999.0,48,-99.99,,,-99.99,,2013-06-29 21:42:00,
2013-06-29 15:52:00,61.0,41.0,29.98,SSW,213,1.0,-999.0,48,-99.99,,,-99.99,,2013-06-29 21:52:00,
2013-06-29 16:43:00,54.0,44.0,29.97,ENE,70,0.0,-999.0,70,-99.99,,,-99.99,,2013-06-29 22:43:00,
2013-06-29 16:53:00,54.0,44.0,29.97,ENE,70,0.0,-999.0,70,-99.99,,,-99.99,,2013-06-29 22:53:00,
2013-06-29 17:02:00,55.0,45.0,29.96,ENE,77,0.0,-999.0,68,-99.99,,,-99.99,,2013-06-29 23:02:00,
2013-06-29 17:12:00,55.0,44.0,29.96,ESE,123,0.0,-999.0,67,-99.99,,,-99.99,,2013-06-29 23:12:00,
2013-06-29 17:23:00,55.0,44.0,29.96,ESE,123,0.0,-999.0,67,-99.99,,,-99.99,,2013-06-29 23:23:00,
2013-06-29 17:34:00,54.0,45.0,29.96,North,5,0.0,-999.0,71,-99.99,,,-99.99,,2013-06-29 23:34:00,
2013-06-29 18:33:00,51.0,43.0,29.95,ENE,64,1.0,-999.0,73,-99.99,,,-99.99,,2013-06-30 00:33:00,
2013-06-29 18:43:00,52.0,42.0,29.95,ESE,114,0.0,-999.0,69,-99.99,,,-99.99,,2013-06-30 00:43:00,
2013-06-29 18:52:00,52.0,42.0,29.95,ESE,114,0.0,-999.0,69,-99.99,,,-99.99,,2013-06-30 00:52:00,
2013-06-29 19:01:00,53.0,42.0,29.95,East,101,0.0,-999.0,66,-99.99,,,-99.99,,2013-06-30 01:01:00,
2013-06-29 19:11:00,54.0,44.0,29.94,East,101,0.0,-999.0,70,-99.99,,,-99.99,,2013-06-30 01:11:00,
2013-06-29 19:22:00,54.0,44.0,29.94,East,101,0.0,-999.0,70,-99.99,,,-99.99,,2013-06-30 01:22:00,
2013-06-29 19:33:00,55.0,45.0,29.95,East,101,0.0,-999.0,69,-99.99,,,-99.99,,2013-06-30 01:33:00,
2013-06-29 19:44:00,54.0,42.0,29.96,East,101,0.0,-999.0,63,-99.99,,,-99.99,,2013-06-30 01:44:00,
2013-06-29 19:53:00,54.0,42.0,29.96,East,101,0.0,-999.0,63,-99.99,,,-99.99,,2013-06-30 01:53:00,
2013-06-29 20:02:00,54.0,45.0,29.96,East,101,0.0,-999.0,71,-99.99,,,-99.99,,2013-06-30 02:02:00,
2013-06-29 20:11:00,53.0,44.0,29.96,East,101,0.0,-999.0,72,-99.99,,,-99.99,,2013-06-30 02:11:00,
2013-06-29 20:23:00,53.0,44.0,29.96,East,101,0.0,-999.0,72,-99.99,,,-99.99,,2013-06-30 02:23:00,
2013-06-29 20:33:00,52.0,43.0,29.97,East,101,0.0,-999.0,72,-99.99,,,-99.99,,2013-06-30 02:33:00,
2013-06-29 20:43:00,51.0,43.0,29.97,East,101,0.0,-999.0,74,-99.99,,,-99.99,,2013-06-30 02:43:00,
2013-06-29 20:53:00,51.0,43.0,29.97,East,101,0.0,-999.0,74,-99.99,,,-99.99,,2013-06-30 02:53:00,
2013-06-29 21:01:00,50.0,43.0,29.98,East,101,0.0,-999.0,76,-99.99,,,-99.99,,2013-06-30 03:01:00,
2013-06-29 21:11:00,48.0,42.0,29.98,East,101,0.0,-999.0,79,-99.99,,,-99.99,,2013-06-30 03:11:00,
2013-06-29 21:23:00,48.0,42.0,29.98,East,101,0.0,-999.0,79,-99.99,,,-99.99,,2013-06-30 03:23:00,
2013-06-29 21:33:00,47.0,41.0,29.99,East,101,0.0,-999.0,81,-99.99,,,-99.99,,2013-06-30 03:33:00,
2013-06-29 21:43:00,46.0,41.0,30.00,East,101,0.0,-999.0,83,-99.99,,,-99.99,,2013-06-30 03:43:00,
2013-06-29 21:53:00,46.0,41.0,30.00,East,101,0.0,-999.0,83,-99.99,,,-99.99,,2013-06-30 03:53:00,
2013-06-29 22:01:00,45.0,40.0,30.02,East,101,0.0,-999.0,84,-99.99,,,-99.99,,2013-06-30 04:01:00,
2013-06-29 22:12:00,44.0,39.0,30.02,East,101,0.0,-999.0,84,-99.99,,,-99.99,,2013-06-30 04:12:00,
2013-06-29 22:22:00,44.0,39.0,30.02,East,101,0.0,-999.0,84,-99.99,,,-99.99,,2013-06-30 04:22:00,
2013-06-29 22:33:00,44.0,40.0,30.03,East,101,0.0,-999.0,85,-99.99,,,-99.99,,2013-06-30 04:33:00,
2013-06-29 22:43:00,43.0,39.0,30.04,East,101,0.0,-999.0,85,-99.99,,,-99.99,,2013-06-30 04:43:00,
2013-06-29 22:53:00,43.0,39.0,30.04,East,101,0.0,-999.0,85,-99.99,,,-99.99,,2013-06-30 04:53:00,
2013-06-29 23:02:00,43.0,39.0,30.04,East,101,0.0,-999.0,85,-99.99,,,-99.99,,2013-06-30 05:02:00,
2013-06-29 23:12:00,42.0,38.0,30.04,East,101,0.0,-999.0,86,-99.99,,,-99.99,,2013-06-30 05:12:00,
2013-06-29 23:22:00,42.0,38.0,30.04,East,101,0.0,-999.0,86,-99.99,,,-99.99,,2013-06-30 05:22:00,
2013-06-29 23:33:00,41.0,37.0,30.04,East,101,0.0,-999.0,87,-99.99,,,-99.99,,2013-06-30 05:33:00,
2013-06-29 23:43:00,41.0,37.0,30.05,East,101,0.0,-999.0,87,-99.99,,,-99.99,,2013-06-30 05:43:00,
2013-06-29 23:53:00,41.0,37.0,30.05,East,101,0.0,-999.0,87,-99.99,,,-99.99,,2013-06-30 05:53:00,